User: anonymous   Login
Location: Unspecified
(0.0000°N, 0.0000°E)
Time: 20:01:38
(UTC+01:00)
Language:

BREEZE-M DEB (TANK) - Orbit

View from above orbital plane
View from above orbital plane
View from above satellite
View from above satellite

Ground track
Ground track

The orbit data is extracted from the following two-line orbital elements,

1 33374U 08044B   14325.20898978  .00002121  00000-0  55353-3 0  7811
2 33374 049.4119 221.3994 5459516 242.2668 339.4791 04.84699008108345
Epoch (UTC): 21 November 2014 05:00:56
Eccentricity: 0.5459516
inclination: 49.4119°
perigee height: 318 km
apogee height: 16422 km
right ascension of ascending node: 221.3994°
argument of perigee: 242.2668°
revolutions per day: 4.84699008
mean anomaly at epoch: 339.4791°
orbit number at epoch: 10834

The dashed part of the orbit path shows where the satellite is in the earth's shadow,  

DLR